Voltar ao catálogo

STARLINK-36502

AtivoComunicaçõesVLEO
NORAD 67627·PAYLOAD·🇺🇸 United States

Lançado Jan 30, 2026 de Cape Canaveral Space Force Station

Loading…

Próximas Passagens (próximas 24 horas)

TLE

AtualizadoSource: CelesTrak SupGP

Época: Sep 14, 2026, 23:00 UTC

1 67627C 26020L   26257.95881944 -.00037596  00000+0 -13617-2 0  2576
2 67627  43.0005 150.7932 0001350 269.3552 358.0953 15.27597932    14

Acompanhe STARLINK-36502 em tempo real com AllMySat

Download on the App Store